| time (UTC) | temp F | wind direction | speed knots | gust knots | rain 1hr in | rain 24hr in | rain mn in | humidity % | barometer mb |
| 20260506044538 | 44 | 0 | 0.0 | 0.9 | 0.00 | 0.00 | 0.00 | 46 | 1011.6 |
| 20260506043035 | 45 | 0 | 0.0 | 2.6 | 0.00 | 0.00 | 0.00 | 45 | 1011.4 |
| 20260506041538 | 46 | 0 | 0.0 | 2.6 | 0.00 | 0.00 | 0.00 | 43 | 1011.2 |
| 20260506040041 | 47 | 17 | 1.7 | 5.2 | 0.00 | 0.00 | 0.00 | 42 | 1011.0 |
| 20260506034544 | 47 | 36 | 3.5 | 9.6 | 0.00 | 0.00 | 0.00 | 41 | 1010.9 |
| 20260506033036 | 48 | 326 | 2.6 | 9.6 | 0.00 | 0.00 | 0.00 | 40 | 1011.0 |
| 20260506031535 | 48 | 37 | 3.5 | 7.0 | 0.00 | 0.00 | 0.00 | 40 | 1010.9 |
| 20260506030043 | 49 | 39 | 2.6 | 8.7 | 0.00 | 0.00 | 0.00 | 39 | 1010.8 |
| 20260506024557 | 49 | 360 | 3.5 | 7.8 | 0.00 | 0.00 | 0.00 | 39 | 1010.7 |
| 20260506023037 | 50 | 304 | 1.7 | 7.0 | 0.00 | 0.00 | 0.00 | 38 | 1010.5 |
| 20260506021536 | 50 | 340 | 1.7 | 4.3 | 0.00 | 0.00 | 0.00 | 37 | 1010.1 |
| 20260506020040 | 51 | 322 | 0.9 | 5.2 | 0.00 | 0.00 | 0.00 | 36 | 1009.9 |
| 20260506014535 | 51 | 303 | 1.7 | 6.1 | 0.00 | 0.00 | 0.00 | 35 | 1009.6 |
| 20260506013058 | 52 | 271 | 2.6 | 7.0 | 0.00 | 0.00 | 0.00 | 35 | 1009.3 |
| 20260506011541 | 52 | 345 | 2.6 | 11.3 | 0.00 | 0.00 | 0.00 | 34 | 1009.0 |
| 20260506010038 | 53 | 304 | 2.6 | 11.3 | 0.00 | 0.00 | 0.00 | 33 | 1008.9 |
| 20260506004536 | 53 | 29 | 2.6 | 7.0 | 0.00 | 0.00 | 0.00 | 33 | 1008.8 |
| 20260506003041 | 54 | 348 | 3.5 | 12.2 | 0.00 | 0.00 | 0.00 | 32 | 1008.6 |
| 20260506001544 | 54 | 347 | 2.6 | 13.9 | 0.00 | 0.00 | 0.00 | 32 | 1008.6 |
| 20260506000040 | 55 | 329 | 1.7 | 8.7 | 0.00 | 0.00 | 0.00 | 31 | 1008.4 |
| 20260505234539 | 55 | 245 | 4.3 | 9.6 | 0.00 | 0.00 | 0.00 | 31 | 1008.5 |
| 20260505233036 | 55 | 271 | 2.6 | 9.6 | 0.00 | 0.00 | 0.00 | 32 | 1008.6 |
| 20260505231538 | 55 | 225 | 3.5 | 9.6 | 0.00 | 0.00 | 0.00 | 31 | 1008.4 |
| 20260505230050 | 56 | 335 | 4.3 | 10.4 | 0.00 | 0.00 | 0.00 | 31 | 1008.4 |
| 20260505224540 | 56 | 332 | 3.5 | 7.8 | 0.00 | 0.00 | 0.00 | 31 | 1008.4 |
| 20260505223053 | 56 | 293 | 5.2 | 10.4 | 0.00 | 0.00 | 0.00 | 31 | 1008.2 |
| 20260505221539 | 56 | 294 | 5.2 | 14.8 | 0.00 | 0.00 | 0.00 | 30 | 1007.9 |
| 20260505220042 | 57 | 287 | 5.2 | 15.6 | 0.00 | 0.00 | 0.00 | 31 | 1008.0 |
| 20260505214536 | 56 | 319 | 5.2 | 13.9 | 0.00 | 0.00 | 0.00 | 32 | 1008.1 |
| 20260505213050 | 56 | 307 | 6.1 | 13.9 | 0.00 | 0.00 | 0.00 | 32 | 1008.2 |
| 20260505211535 | 56 | 203 | 2.6 | 9.6 | 0.00 | 0.00 | 0.00 | 33 | 1007.9 |
| 20260505210032 | 56 | 303 | 6.1 | 15.6 | 0.00 | 0.00 | 0.00 | 30 | 1008.1 |
| 20260505204540 | 56 | 294 | 4.3 | 13.9 | 0.00 | 0.00 | 0.00 | 32 | 1008.2 |
| 20260505203044 | 56 | 336 | 4.3 | 9.6 | 0.00 | 0.00 | 0.00 | 33 | 1008.4 |
| 20260505201537 | 56 | 265 | 5.2 | 15.6 | 0.00 | 0.00 | 0.00 | 33 | 1008.5 |
| 20260505200035 | 56 | 325 | 5.2 | 13.9 | 0.00 | 0.00 | 0.00 | 34 | 1008.5 |
| 20260505194540 | 55 | 279 | 4.3 | 11.3 | 0.00 | 0.00 | 0.00 | 34 | 1008.7 |
| 20260505193045 | 55 | 264 | 4.3 | 10.4 | 0.00 | 0.00 | 0.00 | 36 | 1008.6 |
| 20260505191544 | 55 | 298 | 7.0 | 13.0 | 0.00 | 0.00 | 0.00 | 36 | 1008.9 |
| 20260505190040 | 54 | 304 | 4.3 | 12.2 | 0.00 | 0.00 | 0.00 | 36 | 1008.7 |
| 20260505184540 | 54 | 272 | 3.5 | 11.3 | 0.00 | 0.00 | 0.00 | 37 | 1008.7 |
| 20260505183038 | 54 | 255 | 4.3 | 13.9 | 0.00 | 0.00 | 0.00 | 37 | 1008.6 |
| 20260505181539 | 54 | 297 | 5.2 | 13.9 | 0.00 | 0.00 | 0.00 | 34 | 1008.5 |
| 20260505180038 | 55 | 281 | 4.3 | 10.4 | 0.00 | 0.00 | 0.00 | 32 | 1008.2 |
| 20260505174535 | 54 | 243 | 6.1 | 13.0 | 0.00 | 0.00 | 0.00 | 37 | 1008.2 |
| 20260505173046 | 54 | 321 | 3.5 | 13.9 | 0.00 | 0.00 | 0.00 | 37 | 1008.5 |
| 20260505171539 | 54 | 229 | 7.8 | 13.0 | 0.00 | 0.00 | 0.00 | 37 | 1008.3 |
| 20260505170039 | 54 | 264 | 6.1 | 13.9 | 0.00 | 0.00 | 0.00 | 37 | 1008.0 |
| 20260505164549 | 53 | 283 | 6.1 | 16.5 | 0.00 | 0.00 | 0.00 | 36 | 1007.8 |
| 20260505163102 | 53 | 240 | 7.0 | 16.5 | 0.00 | 0.00 | 0.00 | 37 | 1008.4 |
| 20260505161544 | 53 | 62 | 3.5 | 14.8 | 0.00 | 0.00 | 0.00 | 41 | 1008.2 |
| 20260505153049 | 52 | 255 | 7.8 | 14.8 | 0.00 | 0.00 | 0.00 | 40 | 1008.0 |
| 20260505151543 | 52 | 243 | 6.1 | 13.0 | 0.00 | 0.00 | 0.00 | 41 | 1008.2 |
| 20260505124540 | 47 | 283 | 2.6 | 6.1 | 0.00 | 0.00 | 0.00 | 46 | 1008.7 |
| 20260505123037 | 47 | 288 | 3.5 | 7.0 | 0.00 | 0.00 | 0.00 | 48 | 1008.0 |
| 20260505121537 | 46 | 247 | 1.7 | 6.1 | 0.00 | 0.00 | 0.00 | 50 | 1008.7 |
| 20260505120040 | 45 | 257 | 2.6 | 4.3 | 0.00 | 0.00 | 0.00 | 49 | 1008.1 |
| 20260505114544 | 45 | 0 | 0.9 | 3.5 | 0.00 | 0.00 | 0.00 | 49 | 1007.5 |
| 20260505113037 | 45 | 355 | 0.0 | 1.7 | 0.00 | 0.00 | 0.00 | 50 | 1006.8 |
| 20260505111549 | 45 | 283 | 1.7 | 5.2 | 0.00 | 0.00 | 0.00 | 48 | 1007.3 |
| 20260505101539 | 46 | 295 | 2.6 | 7.8 | 0.00 | 0.00 | 0.00 | 46 | 1006.3 |
| 20260505100042 | 46 | 333 | 1.7 | 6.1 | 0.00 | 0.00 | 0.00 | 46 | 1005.9 |
| 20260505094536 | 47 | 310 | 2.6 | 8.7 | 0.00 | 0.00 | 0.00 | 46 | 1006.2 |
| 20260505093035 | 47 | 316 | 1.7 | 7.0 | 0.00 | 0.00 | 0.00 | 48 | 1006.3 |
| 20260505091551 | 47 | 288 | 2.6 | 7.8 | 0.00 | 0.00 | 0.00 | 47 | 1006.2 |
| 20260505090050 | 47 | 337 | 3.5 | 7.8 | 0.00 | 0.00 | 0.00 | 48 | 1005.7 |
| 20260505084536 | 48 | 330 | 2.6 | 5.2 | 0.00 | 0.00 | 0.00 | 48 | 1005.3 |
| 20260505083042 | 48 | 359 | 4.3 | 11.3 | 0.00 | 0.00 | 0.00 | 47 | 1005.1 |
| 20260505081550 | 49 | 4 | 3.5 | 7.8 | 0.00 | 0.00 | 0.00 | 48 | 1004.8 |
| 20260505080041 | 49 | 337 | 2.6 | 12.2 | 0.00 | 0.00 | 0.00 | 47 | 1004.2 |
| 20260505074559 | 50 | 328 | 5.2 | 9.6 | 0.00 | 0.00 | 0.00 | 46 | 1004.0 |
| 20260505073038 | 51 | 21 | 2.6 | 13.9 | 0.00 | 0.00 | 0.00 | 46 | 1004.0 |
| 20260505071536 | 51 | 338 | 2.6 | 9.6 | 0.00 | 0.00 | 0.00 | 47 | 1003.8 |
| 20260505070036 | 52 | 317 | 1.7 | 12.2 | 0.00 | 0.00 | 0.00 | 46 | 1003.5 |
| 20260505064537 | 53 | 327 | 4.3 | 14.8 | 0.00 | 0.00 | 0.00 | 45 | 1003.2 |
| 20260505063041 | 53 | 282 | 2.6 | 10.4 | 0.00 | 0.00 | 0.00 | 45 | 1003.1 |
| 20260505061601 | 54 | 321 | 5.2 | 13.0 | 0.00 | 0.00 | 0.00 | 44 | 1003.0 |
| 20260505060044 | 55 | 308 | 2.6 | 8.7 | 0.00 | 0.00 | 0.00 | 44 | 1003.1 |
| 20260505054541 | 56 | 12 | 3.5 | 10.4 | 0.00 | 0.00 | 0.00 | 42 | 1002.9 |
| 20260505053035 | 58 | 340 | 5.2 | 15.6 | 0.00 | 0.00 | 0.00 | 40 | 1002.4 |
| 20260505051541 | 58 | 302 | 3.5 | 7.8 | 0.00 | 0.00 | 0.00 | 37 | 1002.0 |